CST,Max TemperatureF,Mean TemperatureF,Min TemperatureF,Max Dew PointF,MeanDew PointF,Min DewpointF,Max Humidity, Mean Humidity, Min Humidity, Max Sea Level PressureIn, Mean Sea Level PressureIn, Min Sea Level PressureIn, Max VisibilityMiles, Mean VisibilityMiles, Min VisibilityMiles, Max Wind SpeedMPH, Mean Wind SpeedMPH, Max Gust SpeedMPH,PrecipitationIn, CloudCover, Events, WindDirDegrees
2012-10-1,81,68,56,62,59,53,100,76,30,30.18,29.92,29.63,8,7,5,10,2,,0.79,5,,281
2012-10-2,75,63,48,60,51,45,100,68,28,30.25,30.01,29.71,8,7,5,21,3,,0.00,4,,39
2012-10-3,79,60,41,54,43,34,100,62,16,30.33,30.10,29.82,9,7,5,9,2,,0.00,1,,10
2012-10-4,81,60,39,50,42,28,100,62,15,30.38,30.17,29.65,9,8,5,9,2,,0.00,0,,8
2012-10-5,81,59,37,58,41,27,100,59,11,30.35,30.14,29.78,9,8,5,14,2,,0.00,0,,340
2012-10-6,81,58,35,50,42,34,93,58,16,30.28,30.06,29.70,9,8,5,7,1,,0.00,0,,319
2012-10-7,82,60,39,47,43,36,100,59,14,30.26,30.02,29.67,15,8,5,9,2,,0.00,0,,2
2012-10-8,81,60,39,56,48,39,100,65,22,30.31,30.08,29.76,9,8,5,10,2,,0.00,1,,344
2012-10-9,79,64,50,60,55,50,100,72,38,30.31,30.06,29.74,9,7,5,8,2,,0.00,2,Rain,205
2012-10-10,82,65,48,62,56,48,100,75,30,30.30,30.06,29.71,8,6,0,12,3,,0.00,2,Fog,223
2012-10-11,82,70,57,61,57,54,100,72,39,30.34,30.04,29.71,8,7,5,8,2,,0.04,3,Rain,5
2012-10-12,82,68,55,62,56,52,100,72,32,30.34,30.07,29.74,9,7,5,15,4,,0.20,4,Rain-Thunderstorm,54
2012-10-13,83,67,51,62,58,52,100,77,33,30.34,30.08,29.72,11,6,1,10,1,,0.00,4,Fog-Rain,227
2012-10-14,83,69,55,63,58,50,100,71,34,30.29,30.01,29.65,9,6,1,13,3,,0.00,3,Fog,5
2012-10-15,84,65,46,60,54,45,100,71,35,30.28,30.02,29.70,9,7,5,13,2,,0.00,2,,196
2012-10-16,83,66,50,59,55,50,100,73,28,30.22,29.99,29.65,9,6,5,12,3,,0.00,1,,205
2012-10-17,79,64,50,59,55,50,100,73,35,30.26,30.00,29.70,8,6,5,7,1,,0.00,4,Fog,357
2012-10-18,84,65,46,64,55,46,100,72,24,30.23,29.99,29.65,9,7,5,7,2,,0.00,3,Fog,299
2012-10-19,85,69,53,63,59,54,100,73,35,30.21,29.93,29.59,9,6,4,13,3,,0.00,3,Fog,226
2012-10-20,84,70,57,61,58,54,100,73,27,30.23,29.94,29.58,8,6,5,9,3,,0.00,5,,222
2012-10-21,83,67,51,61,54,43,100,69,26,30.22,29.97,29.62,9,6,3,9,2,,0.00,3,,13
2012-10-22,83,64,46,60,51,43,100,65,20,30.24,29.99,29.66,9,7,5,7,1,,0.00,2,,318
2012-10-23,84,64,44,57,49,43,100,65,19,30.20,29.97,29.64,9,7,5,10,2,,0.00,1,,297
2012-10-24,83,64,46,59,51,46,100,69,24,30.23,29.97,29.62,8,7,5,8,2,,0.00,0,,314
2012-10-25,85,64,44,61,49,30,100,66,13,30.20,29.95,29.60,9,7,4,9,2,,0.00,0,Fog,321
2012-10-26,84,63,42,61,49,40,100,63,15,30.21,29.96,29.60,9,6,5,7,2,,0.00,0,,285
2012-10-27,84,63,42,62,50,43,100,68,22,30.24,29.99,29.68,9,7,5,9,2,,0.00,1,Fog,252
2012-10-28,81,67,53,59,53,48,100,74,23,30.29,30.02,29.74,9,7,5,9,2,,0.00,5,,281
2012-10-29,79,64,50,58,53,48,94,75,40,30.35,30.09,29.79,7,6,5,10,2,,0.00,6,Rain,224
2012-10-30,78,64,51,57,52,45,100,75,32,30.30,30.07,29.77,9,7,5,10,2,,0.08,4,,237
2012-10-31,79,63,47,54,51,43,100,73,27,30.30,30.07,29.78,9,6,5,16,3,,1.55,4,Rain,237